This demonstration page uses our WeatherBlox Daily Observations layout. Learn more.

41.55636, -103.73856

Hourly Observations for March 1, 2019

Temp ( °F °C ) Dew Point ( °F °C ) Humidity (%) Winds ( mph kmh ) Pressure ( in mb ) Visibility ( mi km ) Precip ( " mm )
12:53 am 00:53 Clear 30 -1.1 27 -2.8 88 88 ESE 8 13 29.8 1009 10 16.09344 0 0
1:53 am 01:53 Clear 29 -1.7 26 -3.3 89 89 ESE 5 7 29.77 1008 10 16.09344 0 0
2:53 am 02:53 Clear 25 -3.9 23 -5 92 92 ENE 3 6 29.77 1008 10 16.09344 0 0
3:53 am 03:53 Clear 30 -1.1 27 -2.8 88 88 NNW 3 6 29.77 1008 10 16.09344 0 0
4:53 am 04:53 Clear 28 -2.2 25 -3.9 88 88 NW 7 11 29.8 1009 10 16.09344 0 0
5:53 am 05:53 Clear 29 -1.7 25 -3.9 85 85 N 18 30 29.85 1011 10 16.09344 0 0
6:01 am 06:01 Clear 27 -2.8 24 -4.4 89 89 N 18 30 29.97 1015 10 16.09344 0 0
6:53 am 06:53 Partly Cloudy 26 -3.3 23 -5 88 88 VRB 3 6 29.94 1014 10 16.09344 0 0
7:02 am 07:02 Mostly Cloudy 27 -3 23 -5 86 86 W 3 6 30.09 1019 10 16.09344 0 0
7:13 am 07:13 Mostly Sunny 27 -2.8 23 -5 85 85 WNW 13 20 30.09 1019 10 16.09344 0 0
7:53 am 07:53 Partly Cloudy 28 -2.2 23 -5 81 81 NW 13 20 30.03 1017 10 16.09344 0 0
8:53 am 08:53 Mostly Sunny 32 0 21 -6.1 64 64 NW 20 31 30.06 1018 10 16.09344 0 0
9:53 am 09:53 Cloudy 35 1.7 19 -7.2 52 52 NW 18 30 30.09 1019 10 16.09344 0 0
10:53 am 10:53 Cloudy 38 3.3 15 -9.4 39 39 N 18 30 30.09 1019 10 16.09344 0 0
11:53 am 11:53 Sunny 40 4.4 15 -9.4 36 36 N 17 28 30.09 1019 10 16.09344 0 0
12:53 pm 12:53 Sunny 40 4.4 11 -11.7 30 30 N 14 22 30.06 1018 10 16.09344 0 0
1:53 pm 13:53 Sunny 42 5.6 8 -13.3 24 24 N 15 24 30.06 1018 10 16.09344 0 0
2:53 pm 14:53 Sunny 42 5.6 9 -12.8 25 25 N 12 19 30.06 1018 10 16.09344 0 0
3:53 pm 15:53 Sunny 42 5.6 11 -11.7 28 28 NNE 16 26 30.06 1018 10 16.09344 0 0
4:53 pm 16:53 Sunny 37 2.8 12 -11.1 36 36 NE 14 22 30.06 1018 10 16.09344 0 0
5:53 pm 17:53 Clear 30 -1.1 13 -10.6 49 49 ENE 12 19 30.09 1019 10 16.09344 0 0
6:53 pm 18:53 Clear 26 -3.3 12 -11.1 55 55 E 8 13 30.15 1021 10 16.09344 0 0
7:53 pm 19:53 Mostly Clear 25 -3.9 17 -8.3 72 72 ESE 12 19 30.18 1022 10 16.09344 0 0
8:53 pm 20:53 Cloudy 25 -3.9 17 -8.3 72 72 ESE 13 20 30.18 1022 10 16.09344 0 0
9:53 pm 21:53 Cloudy 24 -4.4 19 -7.2 81 81 ESE 17 28 30.18 1022 10 16.09344 0 0
10:53 pm 22:53 Cloudy 22 -5.6 18 -7.8 85 85 ESE 17 28 30.15 1021 10 16.09344 0 0
11:53 pm 23:53 Windy with Snow Likely 22 -5.6 18 -7.8 85 85 ESE 20 31 30.15 1021 3 4.828032 0.001 0.001
11:56 pm 23:56 Cloudy with Light Snow 21 -6 19 -7 93 93 ESE 18 30 30.3 1026 2.5 4.02336 0 0

Powered by AerisWeather